This demonstration page uses our WeatherBlox Daily Observations layout. Learn more.

Hourly Observations for August 19, 2016

Temp ( °F °C ) Dew Point ( °F °C ) Humidity (%) Winds ( mph kmh ) Pressure ( in mb ) Visibility ( mi km ) Precip ( " mm )
12:15 am 00:15 Clear 71 21.5 63 17 76 76 S 6 9 29.85 1011 10 16.09344 0 0
12:35 am 00:35 Clear 70 21 63 17.1 79 79 S 6 9 29.85 1011 10 16.09344 0 0
12:55 am 00:55 Clear 70 20.9 63 17 78 78 S 6 9 29.85 1011 10 16.09344 0 0
1:15 am 01:15 Clear 69 20.5 63 17 80 80 S 5 7 29.85 1011 10 16.09344 0 0
1:35 am 01:35 Clear with Nearby Thunderstorms 68 20.2 63 17 82 82 S 5 7 29.85 1011 10 16.09344 0 0
1:55 am 01:55 Clear 68 20.2 63 17 82 82 SSW 6 9 29.85 1011 10 16.09344 0 0
2:15 am 02:15 Clear 68 20 63 17.2 84 84 WNW 6 9 29.88 1012 10 16.09344 0 0
2:35 am 02:35 Clear 68 19.9 63 17 83 83 Calm 29.88 1012 10 16.09344 0 0
2:55 am 02:55 Clear with Nearby Thunderstorms 67 19.5 63 17 86 86 NW 6 9 29.88 1012 10 16.09344 0 0
3:15 am 03:15 Clear 66 18.8 62 16.8 88 88 N 3 6 29.88 1012 10 16.09344 0 0
3:35 am 03:35 Clear 65 18.6 62 16.8 89 89 Calm 29.88 1012 10 16.09344 0 0
3:55 am 03:55 Clear with Nearby Thunderstorms 65 18.5 62 16.6 89 89 Calm 29.88 1012 10 16.09344 0 0
4:15 am 04:15 Clear 65 18.6 61 16.3 87 87 Calm 29.88 1012 10 16.09344 0 0
4:35 am 04:35 Clear 65 18.3 62 16.5 89 89 Calm 29.88 1012 10 16.09344 0 0
4:55 am 04:55 Clear 66 18.7 62 16.7 88 88 NNW 7 11 29.88 1012 10 16.09344 0 0
5:15 am 05:15 Clear 65 18.5 63 17.2 92 92 NNW 6 9 29.88 1012 10 16.09344 0 0
5:35 am 05:35 Clear 65 18.5 63 17.1 92 92 N 5 7 29.88 1012 10 16.09344 0 0
5:55 am 05:55 Partly Cloudy 65 18.4 62 16.8 90 90 N 5 7 29.88 1012 10 16.09344 0 0
6:15 am 06:15 Mostly Cloudy with Light Rain 65 18.1 62 16.7 92 92 NE 5 7 29.88 1012 10 16.09344 0 0
6:35 am 06:35 Cloudy with Light Rain 65 18.1 62 16.7 92 92 N 15 24 29.85 1011 10 16.09344 0 0
6:55 am 06:55 Cloudy with Light Rain 65 18.1 62 16.5 90 90 N 17 28 29.83 1010 10 16.09344 0 0
7:15 am 07:15 Mostly Cloudy with Light Rain 64 17.8 62 16.5 92 92 N 15 24 29.83 1010 10 16.09344 0 0
7:35 am 07:35 Partly Cloudy 64 17.8 62 16.5 92 92 Calm 29.88 1012 10 16.09344 0 0
7:55 am 07:55 Sunny 64 17.8 61 16.2 90 90 NE 8 13 29.85 1011 10 16.09344 0 0
8:15 am 08:15 Sunny 64 17.7 61 16.2 91 91 ENE 10 17 29.85 1011 10 16.09344 0 0
8:35 am 08:35 Sunny 64 17.7 61 16.3 92 92 NNE 6 9 29.85 1011 10 16.09344 0 0
8:55 am 08:55 Partly Cloudy 64 18 61 16.3 90 90 ENE 8 13 29.85 1011 10 16.09344 0 0
9:15 am 09:15 Partly Cloudy 64 18 61 16.3 90 90 NNE 7 11 29.85 1011 10 16.09344 0 0
9:35 am 09:35 Sunny 65 18.1 61 16.3 89 89 N 6 9 29.88 1012 10 16.09344 0 0
9:55 am 09:55 Sunny with Nearby Thunderstorms 66 18.9 62 16.8 88 88 NNE 7 11 29.85 1011 10 16.09344 0 0
10:15 am 10:15 Partly Cloudy 67 19.5 62 16.5 83 83 N 10 17 29.85 1011 10 16.09344 0 0
10:35 am 10:35 Partly Cloudy 67 19.7 62 16.6 82 82 N 10 17 29.85 1011 10 16.09344 0 0
10:55 am 10:55 Mostly Cloudy 69 20.5 62 16.7 79 79 N 7 11 29.88 1012 10 16.09344 0 0
11:15 am 11:15 Mostly Cloudy 69 20.3 61 16.3 78 78 N 8 13 29.88 1012 10 16.09344 0 0
11:35 am 11:35 Cloudy 69 20.3 62 16.4 78 78 N 9 15 29.88 1012 10 16.09344 0 0
11:55 am 11:55 Cloudy with Light Thunderstorms 67 19.3 62 16.6 84 84 N 7 11 29.88 1012 10 16.09344 0 0
12:15 pm 12:15 Cloudy with Thunderstorms 66 19 63 17.4 91 91 N 12 19 29.85 1011 7 11.265408 0.02 0.508
12:35 pm 12:35 Cloudy 66 19 64 17.6 92 92 N 5 7 29.85 1011 7 11.265408 0.07 1.778
12:55 pm 12:55 Cloudy with Thunderstorms 67 19.2 63 17.3 89 89 N 5 7 29.85 1011 10 16.09344 0.07 1.778
1:15 pm 13:15 Cloudy with Heavy Thunderstorms 67 19.3 63 17.4 89 89 WSW 3 6 29.88 1012 7 11.265408 0.02 0.508
1:35 pm 13:35 Cloudy 65 18.6 63 17.4 93 93 NW 3 6 29.91 1013 7 11.265408 0.06 1.524
1:55 pm 13:55 Cloudy with Rain 65 18.5 64 17.5 94 94 NNE 6 9 29.88 1012 5 8.04672 0.09 2.286
2:15 pm 14:15 Cloudy with Nearby Thunderstorms 65 18.5 63 17.3 93 93 NNE 12 19 29.85 1011 5 8.04672 0.05 1.27
2:35 pm 14:35 Mostly Cloudy with Light Rain 65 18.3 63 17.2 93 93 N 6 9 29.88 1012 10 16.09344 0.06 1.524
2:55 pm 14:55 Partly Cloudy 65 18.3 63 17.2 93 93 N 5 7 29.88 1012 10 16.09344 0.06 1.524
3:15 pm 15:15 Sunny 65 18.5 63 17.3 93 93 NNE 6 9 29.85 1011 10 16.09344 0 0
3:35 pm 15:35 Sunny 65 18.5 64 17.5 94 94 NNE 9 15 29.85 1011 10 16.09344 0 0
3:55 pm 15:55 Sunny 66 18.9 64 17.7 93 93 N 10 17 29.83 1010 10 16.09344 0 0
4:15 pm 16:15 Sunny 68 19.9 65 18.3 91 91 N 9 15 29.83 1010 10 16.09344 0 0
4:35 pm 16:35 Partly Cloudy 70 21.1 65 18.1 83 83 N 9 15 29.8 1009 10 16.09344 0 0
4:55 pm 16:55 Mostly Cloudy 71 21.8 64 17.6 77 77 NNE 8 13 29.8 1009 10 16.09344 0 0
5:15 pm 17:15 Partly Cloudy 71 21.8 63 17.2 75 75 N 12 19 29.8 1009 10 16.09344 0 0
5:35 pm 17:35 Partly Cloudy 73 22.5 63 17.2 72 72 N 12 19 29.77 1008 10 16.09344 0 0
5:55 pm 17:55 Partly Cloudy 72 22.3 63 17.4 74 74 NNE 12 19 29.77 1008 10 16.09344 0 0
6:15 pm 18:15 Mostly Cloudy 71 21.6 63 17 75 75 NNE 7 11 29.8 1009 10 16.09344 0 0
6:35 pm 18:35 Partly Cloudy 71 21.7 61 16.1 71 71 N 7 11 29.8 1009 10 16.09344 0 0
6:55 pm 18:55 Mostly Cloudy 71 21.7 61 16.1 71 71 N 10 17 29.8 1009 10 16.09344 0 0
7:15 pm 19:15 Mostly Cloudy 71 21.9 61 16.1 70 70 N 8 13 29.77 1008 10 16.09344 0 0
7:35 pm 19:35 Mostly Cloudy 71 21.5 61 16.1 71 71 N 7 11 29.83 1010 10 16.09344 0 0
7:55 pm 19:55 Cloudy 70 21.2 60 15.7 71 71 N 6 9 29.83 1010 10 16.09344 0 0
8:15 pm 20:15 Cloudy 69 20.5 61 16 76 76 N 5 7 29.83 1010 10 16.09344 0 0
8:35 pm 20:35 Cloudy 68 20 61 16 78 78 N 5 7 29.85 1011 10 16.09344 0 0
8:55 pm 20:55 Cloudy 67 19.4 61 16.2 82 82 NNE 3 6 29.85 1011 10 16.09344 0 0
9:15 pm 21:15 Cloudy 67 19.2 62 16.5 84 84 N 5 7 29.88 1012 10 16.09344 0 0
9:35 pm 21:35 Cloudy 67 19.3 61 16.1 82 82 N 6 9 29.88 1012 10 16.09344 0 0
9:55 pm 21:55 Cloudy 67 19.3 60 15.8 80 80 NNE 7 11 29.88 1012 10 16.09344 0 0
10:15 pm 22:15 Mostly Cloudy 66 19.1 60 15.7 81 81 NNE 6 9 29.91 1013 10 16.09344 0 0
10:35 pm 22:35 Partly Cloudy 64 18 60 15.6 86 86 N 6 9 29.91 1013 10 16.09344 0 0
10:55 pm 22:55 Partly Cloudy 64 17.8 60 15.6 87 87 N 7 11 29.94 1014 10 16.09344 0 0
11:15 pm 23:15 Mostly Cloudy 65 18.3 60 15.7 85 85 N 7 11 29.94 1014 10 16.09344 0 0
11:35 pm 23:35 Mostly Cloudy 64 17.8 60 15.5 86 86 N 5 7 29.94 1014 10 16.09344 0 0
11:55 pm 23:55 Clear 63 17.2 60 15.5 90 90 N 6 9 29.94 1014 10 16.09344 0 0

Powered by AerisWeather